Meteo Giornale » Osservazioni meteo Yemen » Rmukalla Intl
ore: 22:00 - Osservazioni Meteo Rmukalla Intl
Lat. 14° 40' N Lon. 49° 23' E Alt. 17 metri s.l.m.
32 °C
Sereno
Temp. 24 Ore
30 °C
34 °C
Nord/Nord-Est
18.5 Km/h
Dew point 23 °C
Umidità 59 %
Visibilità 10 Km
Il sole sorge alle ore 05:30
Il sole tramonta alle ore 17:55
| Data e Ora | Cielo e Fenomeni | T °C | DP °C | Um. % | Pres. hPa | Vis. km | Vento km/h | |
|---|---|---|---|---|---|---|---|---|
| Oggi h: 22:00 | Sereno | 32 | 23 | 59 | 1005 | 10 | N/NE 18.5 | |
| Oggi h: 21:00 | Sereno | 31 | 23 | 62 | 1004 | 10 | N/NE 13 | |
| Oggi h: 20:00 | Sereno | 30 | 23 | 66 | 1004 | 10 | E 9.3 | |
| Oggi h: 19:00 | Sereno | 32 | 22 | 55 | 1003 | 10 | S/SO 14.8 | |
| Oggi h: 18:00 | Nuvoloso | 31 | 23 | 62 | 1002 | 8 | S/SO 25.9 | |
| Oggi h: 17:00 | Poco Nuvoloso | 33 | 24 | 59 | 1001 | 10 | S/SO 29.6 | |
| Oggi h: 16:00 | Poco Nuvoloso | 33 | 24 | 59 | 1001 | 10 | S/SO 31.5 | |
| Oggi h: 15:00 | Poco Nuvoloso | 34 | 24 | 56 | 1002 | 10 | S 20.3 | |
| Oggi h: 14:00 | Sereno | 34 | 24 | 56 | 1003 | 10 | S/SE 14.8 | |
| Oggi h: 13:00 | Poco Nuvoloso | 34 | 26 | 63 | 1003 | 10 | E 14.8 | |
| Oggi h: 12:00 | Poco Nuvoloso | 34 | 25 | 59 | 1004 | 10 | S/SE 24 | |
| Oggi h: 11:00 | Poco Nuvoloso | 32 | 27 | 74 | 1005 | 10 | SE 16.7 | |
| Oggi h: 10:00 | Poco Nuvoloso | 32 | 27 | 74 | 1006 | 8 | E/SE 16.7 | |
| Oggi h: 09:00 | Poco Nuvoloso | 32 | 27 | 74 | 1006 | 8 | E/SE 16.7 | |
| Oggi h: 08:00 | Poco Nuvoloso | 31 | 26 | 74 | 1006 | 8 | E 11.1 | |
| Oggi h: 07:00 | Sereno | 31 | 26 | 74 | 1006 | 8 | E/NE 13 | |
| Oggi h: 06:00 | Nuvoloso | 30 | 25 | 74 | 1005 | 8 | N 11.1 | |
| Oggi h: 05:00 | Poco Nuvoloso | 30 | 25 | 74 | 1005 | 10 | N/NE 9.3 | |
| Oggi h: 04:00 | Sereno | 30 | 25 | 74 | 1004 | 10 | N/NE 11.1 | |
| Oggi h: 03:00 | Sereno | 31 | 25 | 70 | 1004 | 10 | N 13 | |
| Oggi h: 02:00 | Sereno | 31 | 23 | 62 | 1003 | 10 | N/NE 9.3 | |
| Oggi h: 01:00 | Sereno | 32 | 23 | 59 | 1004 | 10 | N 9.3 | |
| Oggi h: 00:00 | Sereno | 32 | 23 | 59 | 1004 | 10 | N 9.3 | |
| Ieri h: 23:00 | Sereno | 32 | 23 | 59 | 1004 | 10 | N 11.1 | |



